• In Schweiz
  • Länderverzeichnis
  • Für 7 Tage
  • Wassertemperatur
  • Satellitenkarten
  • Wetterkarte
  • Widgets
  • user-avatar
    Anmelden

    Stündliche Wetter Chelmsford

    Heute, 21 September, Freitag

    Zeit Temperatur Niederschläge Wind Luftdruck Luftfeuchtigkeit
    00:00 +19°C° 0.3 mm 13 m/S 746 mmHg 76%
    01:00 +17°C° 0.9 mm 12 m/S 746 mmHg 73%
    02:00 +15°C° 0.9 mm 12 m/S 745 mmHg 71%
    03:00 +14°C° 0.9 mm 12 m/S 745 mmHg 68%
    04:00 +13°C° 0 mm 11 m/S 747 mmHg 67%
    05:00 +11°C° 0 mm 11 m/S 748 mmHg 66%
    06:00 +9°C° 0 mm 10 m/S 749 mmHg 66%
    07:00 +9°C° 0 mm 10 m/S 750 mmHg 61%
    08:00 +11°C° 0 mm 10 m/S 751 mmHg 56%
    09:00 +12°C° 0 mm 10 m/S 752 mmHg 51%
    10:00 +13°C° 0 mm 10 m/S 753 mmHg 47%
    11:00 +14°C° 0 mm 11 m/S 753 mmHg 43%
    12:00 +16°C° 0 mm 11 m/S 753 mmHg 39%
    13:00 +16°C° 0 mm 11 m/S 754 mmHg 40%
    14:00 +16°C° 0 mm 11 m/S 754 mmHg 42%
    15:00 +16°C° 0 mm 11 m/S 754 mmHg 44%
    16:00 +14°C° 0 mm 10 m/S 755 mmHg 47%
    17:00 +15°C° 0 mm 9 m/S 755 mmHg 50%
    18:00 +13°C° 0 mm 8 m/S 756 mmHg 53%
    19:00 +12°C° 0 mm 8 m/S 757 mmHg 56%
    20:00 +12°C° 0 mm 8 m/S 757 mmHg 60%
    21:00 +11°C° 0 mm 7 m/S 758 mmHg 63%
    22:00 +11°C° 0 mm 7 m/S 759 mmHg 65%
    23:00 +11°C° 0 mm 7 m/S 759 mmHg 67%

    Morgen, 22 September, Samstag

    Zeit Temperatur Niederschläge Wind Luftdruck Luftfeuchtigkeit
    00:00 +10°C° 0 mm 6 m/S 760 mmHg 70%
    01:00 +10°C° 0 mm 6 m/S 760 mmHg 70%
    02:00 +10°C° 0 mm 6 m/S 760 mmHg 71%
    03:00 +10°C° 0 mm 5 m/S 761 mmHg 72%
    04:00 +10°C° 0 mm 5 m/S 761 mmHg 72%
    05:00 +10°C° 0 mm 5 m/S 761 mmHg 73%
    06:00 +9°C° 0 mm 5 m/S 761 mmHg 73%
    07:00 +10°C° 0 mm 5 m/S 762 mmHg 68%
    08:00 +12°C° 0 mm 5 m/S 762 mmHg 64%
    09:00 +13°C° 0 mm 5 m/S 762 mmHg 59%
    10:00 +13°C° 0 mm 5 m/S 762 mmHg 56%
    11:00 +14°C° 0 mm 5 m/S 763 mmHg 53%
    12:00 +15°C° 0 mm 5 m/S 763 mmHg 50%
    13:00 +15°C° 0 mm 5 m/S 762 mmHg 49%
    14:00 +17°C° 0 mm 4 m/S 762 mmHg 49%
    15:00 +17°C° 0 mm 4 m/S 762 mmHg 48%
    16:00 +16°C° 0.2 mm 3 m/S 762 mmHg 54%
    17:00 +14°C° 0.2 mm 3 m/S 762 mmHg 60%
    18:00 +14°C° 0.2 mm 2 m/S 762 mmHg 66%
    19:00 +14°C° 0.4 mm 2 m/S 762 mmHg 71%
    20:00 +13°C° 0.4 mm 2 m/S 761 mmHg 75%
    21:00 +13°C° 0.4 mm 2 m/S 761 mmHg 80%
    22:00 +12°C° 0.7 mm 3 m/S 760 mmHg 82%
    23:00 +12°C° 0.7 mm 3 m/S 760 mmHg 84%

    übermorgen, 23 September, Sonntag

    Zeit Temperatur Niederschläge Wind Luftdruck Luftfeuchtigkeit
    00:00 +12°C° 0.7 mm 4 m/S 759 mmHg 86%
    01:00 +12°C° 0.7 mm 4 m/S 758 mmHg 87%
    02:00 +12°C° 0.7 mm 4 m/S 757 mmHg 88%
    03:00 +12°C° 0.7 mm 5 m/S 756 mmHg 89%
    04:00 +13°C° 1.5 mm 5 m/S 756 mmHg 90%
    05:00 +13°C° 1.5 mm 5 m/S 755 mmHg 91%
    06:00 +13°C° 1.5 mm 5 m/S 754 mmHg 92%
    07:00 +14°C° 0.6 mm 5 m/S 754 mmHg 92%
    08:00 +15°C° 0.6 mm 5 m/S 753 mmHg 93%
    09:00 +16°C° 0.6 mm 6 m/S 753 mmHg 93%
    10:00 +17°C° 0.5 mm 7 m/S 752 mmHg 90%
    11:00 +18°C° 0.5 mm 8 m/S 751 mmHg 88%
    12:00 +19°C° 0.5 mm 9 m/S 750 mmHg 86%
    13:00 +19°C° 0.6 mm 9 m/S 749 mmHg 84%
    14:00 +19°C° 0.6 mm 10 m/S 748 mmHg 83%
    15:00 +19°C° 0.6 mm 10 m/S 747 mmHg 81%
    16:00 +17°C° 2.2 mm 10 m/S 747 mmHg 81%
    17:00 +16°C° 2.2 mm 10 m/S 747 mmHg 81%
    18:00 +14°C° 2.2 mm 10 m/S 747 mmHg 81%
    19:00 +13°C° 0.5 mm 12 m/S 750 mmHg 78%
    20:00 +10°C° 0.5 mm 13 m/S 753 mmHg 75%
    21:00 +9°C° 0.5 mm 14 m/S 755 mmHg 73%
    22:00 +9°C° 0 mm 12 m/S 758 mmHg 71%
    23:00 +8°C° 0 mm 11 m/S 760 mmHg 70%

    24 September, Montag

    Zeit Temperatur Niederschläge Wind Luftdruck Luftfeuchtigkeit
    00:00 +8°C° 0 mm 9 m/S 762 mmHg 68%
    01:00 +9°C° 0 mm 8 m/S 764 mmHg 69%
    02:00 +7°C° 0 mm 8 m/S 765 mmHg 71%
    03:00 +7°C° 0 mm 8 m/S 767 mmHg 72%
    04:00 +6°C° 0 mm 7 m/S 768 mmHg 73%
    05:00 +6°C° 0 mm 7 m/S 769 mmHg 74%
    06:00 +7°C° 0 mm 6 m/S 770 mmHg 76%
    07:00 +8°C° 0 mm 6 m/S 771 mmHg 71%
    08:00 +9°C° 0 mm 6 m/S 772 mmHg 66%
    09:00 +10°C° 0 mm 5 m/S 773 mmHg 61%
    10:00 +12°C° 0 mm 5 m/S 773 mmHg 55%
    11:00 +13°C° 0 mm 5 m/S 774 mmHg 49%
    12:00 +14°C° 0 mm 4 m/S 774 mmHg 43%
    13:00 +14°C° 0 mm 4 m/S 775 mmHg 42%
    14:00 +14°C° 0 mm 4 m/S 775 mmHg 40%
    15:00 +14°C° 0 mm 4 m/S 775 mmHg 39%
    16:00 +13°C° 0 mm 4 m/S 775 mmHg 43%
    17:00 +12°C° 0 mm 3 m/S 775 mmHg 47%
    18:00 +11°C° 0 mm 3 m/S 775 mmHg 50%
    19:00 +12°C° 0 mm 2 m/S 776 mmHg 52%
    20:00 +10°C° 0 mm 2 m/S 776 mmHg 54%
    21:00 +10°C° 0 mm 2 m/S 777 mmHg 56%
    22:00 +9°C° 0 mm 2 m/S 777 mmHg 57%
    23:00 +9°C° 0 mm 2 m/S 777 mmHg 59%

    25 September, Dienstag

    Zeit Temperatur Niederschläge Wind Luftdruck Luftfeuchtigkeit
    00:00 +10°C° 0 mm 1 m/S 777 mmHg 60%
    01:00 +10°C° 0 mm 1 m/S 777 mmHg 61%
    02:00 +9°C° 0 mm 1 m/S 777 mmHg 62%
    03:00 +9°C° 0 mm 1 m/S 777 mmHg 63%
    04:00 +9°C° 0 mm 1 m/S 777 mmHg 64%
    05:00 +9°C° 0 mm 1 m/S 777 mmHg 65%
    06:00 +9°C° 0 mm 1 m/S 777 mmHg 66%
    07:00 +10°C° 0 mm 1 m/S 777 mmHg 62%
    08:00 +12°C° 0 mm 1 m/S 777 mmHg 57%
    09:00 +13°C° 0 mm 1 m/S 777 mmHg 53%
    10:00 +14°C° 0 mm 1 m/S 776 mmHg 50%
    11:00 +15°C° 0 mm 1 m/S 776 mmHg 47%
    12:00 +16°C° 0 mm 1 m/S 776 mmHg 44%
    13:00 +16°C° 0 mm 2 m/S 775 mmHg 44%
    14:00 +17°C° 0 mm 2 m/S 775 mmHg 44%
    15:00 +17°C° 0 mm 2 m/S 774 mmHg 44%
    16:00 +16°C° 0 mm 2 m/S 774 mmHg 50%
    17:00 +15°C° 0 mm 2 m/S 774 mmHg 55%
    18:00 +12°C° 0 mm 3 m/S 773 mmHg 61%
    19:00 +12°C° 0 mm 3 m/S 773 mmHg 65%
    20:00 +11°C° 0 mm 3 m/S 773 mmHg 68%
    21:00 +11°C° 0 mm 3 m/S 773 mmHg 72%
    22:00 +11°C° 0 mm 3 m/S 773 mmHg 73%
    23:00 +11°C° 0 mm 3 m/S 773 mmHg 74%

    26 September, Mittwoch

    Zeit Temperatur Niederschläge Wind Luftdruck Luftfeuchtigkeit
    00:00 +10°C° 0 mm 2 m/S 772 mmHg 76%
    01:00 +10°C° 0 mm 2 m/S 772 mmHg 76%
    02:00 +10°C° 0 mm 2 m/S 772 mmHg 76%
    03:00 +10°C° 0 mm 2 m/S 772 mmHg 76%
    04:00 +10°C° 0 mm 2 m/S 771 mmHg 76%
    05:00 +10°C° 0 mm 2 m/S 771 mmHg 77%
    06:00 +9°C° 0 mm 3 m/S 771 mmHg 77%
    07:00 +11°C° 0 mm 3 m/S 771 mmHg 70%
    08:00 +13°C° 0 mm 3 m/S 771 mmHg 64%
    09:00 +14°C° 0 mm 4 m/S 770 mmHg 57%
    10:00 +15°C° 0 mm 4 m/S 770 mmHg 52%
    11:00 +17°C° 0 mm 4 m/S 770 mmHg 48%
    12:00 +19°C° 0 mm 4 m/S 769 mmHg 43%
    13:00 +19°C° 0 mm 4 m/S 768 mmHg 43%
    14:00 +19°C° 0 mm 4 m/S 768 mmHg 42%
    15:00 +19°C° 0 mm 4 m/S 767 mmHg 42%
    16:00 +18°C° 0 mm 4 m/S 767 mmHg 48%
    17:00 +16°C° 0 mm 3 m/S 767 mmHg 53%
    18:00 +14°C° 0 mm 3 m/S 766 mmHg 58%
    19:00 +14°C° 0 mm 3 m/S 766 mmHg 60%
    20:00 +14°C° 0 mm 2 m/S 766 mmHg 62%
    21:00 +14°C° 0 mm 2 m/S 766 mmHg 63%
    22:00 +14°C° 0 mm 2 m/S 766 mmHg 65%
    23:00 +14°C° 0 mm 2 m/S 765 mmHg 67%
    Mehr zeigen